Find Starlink 32743

NORAD ID: 62480 Int'l Des: 2024-254 Owner: SPXS Country: US Constellation: starlink operational
LEOCIRCULAR

Current View

Loading 3D Globe...

About Starlink 32743

Starlink 32743 (NORAD 62480) is a starlink constellation satellite (v2 mini) launched Dec 31, 2024 by SPXS of US. It operates in LEO, CIRCULAR orbit with a mass of 730.00 kg.

About Starlink 32743

Description loading...

Upcoming Passes

Passes for default location (London). Set your location on the main map for personalized predictions.

Altitude History

Loading altitude history...

Two-Line Element Set

1 62480U 24254U 26167.32566738 .00013301 00000-0 49171-3 0 9992
2 62480 43.0074 178.8460 0000353 235.6927 124.3892 15.27598989 82742
Epoch: Jun 16, 2026 • Age: 16 hours

Current Status

Altitude 485.8 km
Velocity 7.63 km/s
Sub-Earth Point 40.91°N, 20.1°W
Launch Date Dec 31, 2024
Age 1.4 years
Type internet

Technical Details

Classification Payload
Mass 730.00 kg
Dry Mass 700.00 kg
Total Mass 730.00 kg
Length 0.30 m
Diameter 4.10 m
Span 29.00 m
Shape Box + pan
Manufacturer SPXS
Bus Type Starlink V2M
Phase Status In Orbit
Owner/State SPXS/US

Most Searched